User: anonymous   Login
Location: Le Petit-Vavre
(46.5081°N, 1.5239°E)
Time: 19:24:48
(UTC+00:00)
Language:

IDEASSAT - Orbit

View from above orbital plane
View from above orbital plane
View from above satellite
View from above satellite

Ground track
Ground track

The orbit data is extracted from the following two-line orbital elements,

1 47458U 21006AX  21262.12650587  .00001075  00000-0  64363-4 0  9993
2 47458  97.4850 321.7353 0012664 131.6337 228.5981 15.13058500 36215
Epoch (UTC): 19 September 2021 03:02:10
Eccentricity: 0.0012664
inclination: 97.4850°
perigee height: 518 km
apogee height: 535 km
right ascension of ascending node: 321.7353°
argument of perigee: 131.6337°
revolutions per day: 15.13058500
mean anomaly at epoch: 228.5981°
orbit number at epoch: 3621

The dashed part of the orbit path shows where the satellite is in the earth's shadow,  

DLR